CAPE
0 0 0 0 0 0 0 0 20 14 47 262 741 824 703 522 318 217 243 246 365 525
0 0 0 0 0 0 0 22 256 362 343 249 206 424 591 559 419 381 310 233 190 265
0 0 0 0 0 0 16 191 182 228 365 378 319 301 316 255 313 351 380 319 390 425
12 7 5 2 0 0 24 25 52 16 1 3 122 121 105 86 70 93 125 315 290 59
56 45 0 31 7 0 0 0 0 0 0 0 0 0 0 2 37 90 75 143 287 431
46 36 0 16 0 0 0 0 0 0 0 0 0 0 0 0 0 44 20 11 40 247
6 9 2 1 0 0 0 0 0 0 0 0 0 0 0 0 0 0 0 8 52 94
13 5 5 0 0 0 0 0 0 0 0 0 0 0 0 0 0 0 0 0 1 8
0 0 0 0 0 0 0 0 0 0 0 0 0 0 0 0 0 0 0 0 0 0
0 0 0 0 0 0 0 0 0 0 0 0 0 0 0 0 0 0 0 0 0 0
0 0 0 0 0 0 0 0 0 0 0 0 0 0 0 0 0 0 0 0 0 0
0 0 0 0 0 0 0 0 0 0 0 0 0 0 0 0 0 0 0 0 0 0
0 0 0 0 0 0 0 0 0 0 0 0 0 0 0 0 0 0 0 0 0 0
0 0 0 0 0 0 0 0 0 0 0 0 0 0 0 0 0 0 0 0 0 0
CIN
-0 -0 -0 -0 -0 -0 -0 -0 -363 -323 -301 -192 -108 -83 -89 -75 -110 -149 -160 -125 -91 -51
-0 -0 -0 -0 -0 -0 -0 -171 -176 -145 -153 -174 -144 -81 -84 -86 -86 -75 -45 -81 -113 -83
-0 -0 -0 -0 -0 -0 -128 -77 -83 -86 -75 -88 -96 -87 -55 -110 -95 -64 -31 -29 -23 -33
-180 -139 -77 -19 -0 -0 -21 -83 -92 -175 -73 -37 -124 -139 -125 -141 -173 -116 -70 -22 -12 -37
-133 -133 -2 -82 -93 -0 -0 -0 -0 -0 -0 -0 -0 -0 -7 -177 -158 -105 -114 -84 -38 -27
-161 -163 -23 -90 -0 -0 -0 -0 -0 -0 -0 -0 -0 -0 -0 -0 -0 -116 -118 -165 -124 -42
-197 -177 -47 -18 -0 -0 -0 -0 -0 -0 -0 -0 -0 -0 -0 -0 -0 -0 -0 -155 -74 -69
-173 -244 -156 -0 -0 -0 -0 -0 -0 -0 -0 -0 -0 -0 -0 -0 -0 -0 -0 -0 -89 -195
-0 -0 -0 -0 -0 -0 -0 -0 -0 -0 -0 -0 -0 -0 -0 -0 -0 -0 -0 -0 -0 -0
-0 -0 -0 -0 -0 -0 -0 -0 -0 -0 -0 -0 -0 -0 -0 -0 -0 -0 -0 -0 -0 -0
-0 -0 -0 -0 -0 -0 -0 -0 -0 -0 -0 -0 -0 -0 -0 -0 -0 -0 -0 -0 -0 -0
-0 -0 -0 -0 -0 -0 -0 -0 -0 -0 -0 -0 -0 -0 -0 -0 -0 -0 -0 -0 -0 -0
-0 -0 -0 -0 -0 -0 -0 -0 -0 -0 -0 -0 -0 -0 -0 -0 -0 -0 -0 -0 -0 -0
-0 -0 -0 -0 -0 -0 -0 -0 -0 -0 -0 -0 -0 -0 -0 -0 -0 -0 -0 -0 -0 -0
Wind_Speed
29 33 36 38 39 40 38 35 33 32 31 32 32 35 37 38 42 45 44 43 40 37
26 28 32 33 33 33 32 33 32 31 29 28 29 28 28 35 41 42 43 49 44 43
21 24 26 27 29 30 29 28 29 28 28 28 29 29 31 30 33 36 36 37 41 41
16 15 22 23 24 25 25 26 26 26 27 28 29 30 33 34 37 39 36 36 37 35
17 17 17 22 24 23 22 22 23 24 27 29 30 31 33 35 35 39 38 40 40 40
17 21 23 22 22 21 22 23 23 24 27 28 30 31 32 34 35 38 38 41 45 43
23 23 20 24 23 21 22 23 25 25 24 26 28 29 30 32 34 35 36 37 39 39
28 27 24 23 22 24 24 24 25 25 26 26 27 28 30 30 34 37 39 38 40 42
34 32 33 31 22 25 28 29 28 29 29 29 30 32 32 33 36 38 41 43 44 44
32 38 44 38 35 35 32 33 34 34 33 34 34 34 35 36 37 40 42 43 45 46
38 38 38 28 25 41 39 39 39 40 39 39 39 37 38 38 40 41 44 44 44 46
39 41 42 41 34 44 41 38 38 40 42 43 43 40 41 41 43 44 45 44 44 44
39 40 42 41 41 40 43 43 41 40 41 42 44 40 41 42 42 46 47 46 44 44
46 46 45 45 45 44 45 47 49 49 45 43 42 43 44 46 44 46 48 47 45 43
Wind_Direction
285 282 280 277 275 273 274 277 280 280 281 283 283 280 276 274 272 275 277 276 277 282
289 288 284 280 278 277 276 277 278 280 281 285 284 285 286 280 278 279 281 276 276 276
292 289 288 282 278 277 278 277 278 280 282 284 285 287 289 290 287 288 289 287 278 274
288 288 288 286 283 279 280 279 280 280 283 284 285 287 289 288 286 285 290 289 288 286
281 283 284 286 285 282 282 283 281 282 283 285 286 288 287 287 287 283 285 286 284 283
271 278 280 281 283 281 283 284 282 282 284 285 287 287 288 287 287 286 288 280 274 278
274 274 276 277 276 275 281 284 283 283 285 288 289 290 290 287 287 290 289 285 280 276
275 275 274 275 270 271 275 280 281 282 284 288 290 291 289 291 289 288 288 285 279 276
273 274 274 273 266 270 273 276 277 278 281 284 286 288 288 290 291 289 284 281 277 277
279 273 265 268 272 272 273 275 274 276 279 281 284 286 286 286 288 289 282 281 278 275
278 278 271 275 274 271 273 272 273 275 277 279 280 283 284 284 284 287 282 280 277 272
276 274 271 275 280 270 271 274 275 276 277 277 278 279 280 281 281 282 282 280 277 273
278 278 276 278 279 279 274 274 276 277 278 279 278 276 276 279 282 279 280 278 276 269
276 277 277 277 278 278 276 274 274 275 277 276 275 273 273 274 279 279 278 276 275 272